{"data":{"norad_id":68960,"intl_designator":"2026-099K","name":"STARLINK-36978","alt_names":[],"object_type":"PAYLOAD","status":"ACTIVE","operator":null,"country":"US","launch_date":"2026-05-01","launch_site_code":"AFETR","launch_vehicle":null,"mission":null,"orbit_class":"UNKNOWN","rcs_meters":null,"size_class":null,"mass_kg":null,"dimensions":null,"purposes":["comms"],"wikipedia_slug":null,"has_3d_model":false,"image_url":null,"decayed_at":null,"tle_current":{"epoch":"2026-09-19T20:22:39.139968Z","epoch_age_seconds":75254,"freshness":"FRESH","line1":"1 68960U 26099K   26262.84906412  .00014837  00000+0  44933-3 0  9995","line2":"2 68960  53.1589  78.9105 0001422 103.0882 257.0280 15.34404773 21806","mean_motion":15.34404773,"eccentricity":0.0001422,"inclination_deg":53.1589,"raan_deg":78.9105,"arg_perigee_deg":103.0882,"mean_anomaly_deg":257.028,"bstar":0.00044933,"rev_number":2180,"period_min":93.847466153574,"perigee_km":461.71628841715,"apogee_km":463.66181934688,"semimajor_km":6840.826053882,"source":"CELESTRAK","updated_at":"2026-09-20T09:00:44.053230Z"}}}